Vertical_Velocity
-0 1 2 -1 -4 -2 -2 -2 1 -1 -3 -1 -4 0 -1 -0 -1 0 5 -1 9 0 -1 0 1 1 2 -0 0 -1 2 0 4 -4 1 -0 0 0 0 -0 -1 0 1
-2 -9 -8 -0 1 2 -3 -3 -1 -2 3 -6 1 -5 -1 -1 -0 -1 1 3 -1 9 -0 2 -1 3 2 0 -0 0 2 2 4 -0 -1 0 -1 -0 1 1 -1 0 1
6 5 -2 -4 -10 -5 1 -1 -4 -2 1 -2 -1 -4 -1 -1 -2 -0 -0 3 3 2 4 0 2 1 2 2 1 1 0 2 3 4 -3 1 -2 -1 -0 -1 -1 -0 -0
-2 -2 0 4 0 -4 -8 -6 0 -0 -3 1 -4 -1 -2 -3 1 -2 1 -1 3 2 3 4 0 2 3 2 1 3 1 0 1 3 -1 1 2 1 -0 -1 -2 -1 -1
8 7 9 10 9 6 -3 -7 -8 -7 -1 -1 -2 1 -0 -2 1 -2 1 1 0 3 2 2 3 1 0 3 2 2 2 1 2 2 1 -4 1 1 0 -1 -1 -2 -1
-11 -9 -0 11 1 -1 3 6 -2 -11 -8 -3 -9 3 -2 -4 3 -1 1 -0 3 1 4 3 0 1 1 2 1 2 -0 3 -2 2 3 -1 -2 0 1 -1 1 -1 -1
-12 -12 -3 -1 -6 -3 5 3 -0 7 -7 -8 -3 -8 2 3 -4 3 5 3 2 4 2 5 1 -3 2 -1 2 -1 1 0 -7 -10 2 1 -1 1 1 0 1 -0 2
-9 -10 -13 -9 -6 -3 -2 -3 1 7 9 -6 -10 -6 3 -0 2 4 8 6 10 7 -0 3 2 0 -3 4 -0 2 2 2 -3 47 -2 1 1 -0 -1 1 1 1 -0
-9 -10 -11 -8 -5 -6 -4 -5 -9 -10 1 4 -1 -11 -4 -5 -7 12 0 4 6 1 3 4 -1 -1 0 -7 10 -2 -0 -1 -3 -3 5 51 -1 -1 1 -1 1 1 -1
-7 -10 -10 -11 -7 -6 -0 -2 -6 -10 -11 2 -6 -2 -6 -6 4 11 4 1 -1 2 -1 2 -8 -3 -0 -4 -6 13 -1 1 -1 -3 1 3 -6 -0 1 1 -0 -1 1
-7 -5 -7 -3 -7 -6 -4 -2 -1 -1 -3 -4 -9 -6 -1 -6 1 3 6 -4 -8 5 3 -4 -4 -2 -8 1 -6 -2 13 1 0 -0 -1 -4 1 36 9 3 3 -1 -0
-3 -2 -1 -1 -1 -1 -2 -2 -1 -0 -0 -0 2 -2 -4 -2 0 -6 5 3 -2 8 -0 3 -5 3 4 5 -1 7 4 13 0 4 -2 -0 3 -1 -9 0 -4 2 1
-1 1 -2 -1 0 1 1 -1 -0 -0 0 -0 3 -2 2 1 1 -5 -2 26 -18 18 -2 -3 -1 8 2 2 18 9 5 7 24 1 -1 -1 -3 -1 1 27 3 -1 0
1 -1 -1 -3 -1 -2 -1 -2 -4 -2 -2 -2 0 -1 -5 3 3 2 0 10 -2 11 3 12 -1 -3 5 -2 -15 -13 -6 -7 6 21 6 -1 -2 -3 2 7 -8 14 -0
1 3 -1 -1 -1 -1 -4 -4 -2 -1 -5 -2 -2 -1 -3 -4 -1 5 -1 4 13 1 -0 9 -10 -5 6 -6 13 -5 1 -3 13 2 6 1 -2 -4 5 2 2 5 -1
-1 -0 1 -1 0 -2 -4 -6 -3 -1 -4 -3 -1 -1 -1 -2 -1 2 -3 3 6 6 -4 13 3 7 2 3 -1 -2 -0 -1 -3 -3 -6 -0 5 -2 -2 57 21 -2 -3
-3 -3 -2 -1 -1 -2 -2 -2 -2 -2 -3 -3 -3 -2 1 -1 0 2 -6 -2 4 8 -3 7 10 7 -1 1 1 -1 -0 6 -2 -3 -4 -4 -3 -2 -2 2 1 -0 1
-3 -4 -3 -2 -2 -3 -2 -1 -1 -2 -3 -2 -1 -5 -2 -3 -1 2 -0 -3 3 0 4 20 9 2 6 -5 2 -9 2 2 -5 1 -1 -10 8 4 -6 -2 3 9 16
-3 -4 -5 -3 -2 -3 -2 -3 -2 -1 -3 -1 -1 -3 -0 -4 -1 1 1 -2 -0 -6 4 17 10 6 3 7 -3 13 3 -1 0 -5 7 9 27 7 4 -4 4 20 26
-4 -3 -3 -2 -2 -1 -2 -1 -3 -1 -2 -1 -2 -3 -2 -2 -1 -0 -0 -1 -1 -3 -2 12 7 11 3 1 -10 8 41 -1 1 -3 3 14 -1 -7 5 -6 -7 8 16
-1 -3 -0 -3 -1 -1 0 2 1 1 -1 -2 -3 -3 -3 -1 -1 0 -0 1 -1 -1 -4 7 14 9 13 -1 7 -1 -2 -2 6 3 -2 0 -8 1 -9 -4 -6 0 5
-5 -3 -4 -0 1 0 -0 -1 -1 -1 -2 -2 -2 -1 0 -1 0 2 2 1 -0 -1 0 -1 13 5 6 10 8 -2 4 -0 6 -16 12 -16 -7 13 4 2 4 3 -1
-2 -2 -3 -1 0 -1 -1 0 -1 -1 -2 -2 -2 -1 0 2 4 1 0 -1 -3 -3 -1 -0 2 4 9 0 -3 4 15 3 -10 -4 6 -0 2 -8 6 -2 -1 2 2
0 1 -2 -2 -2 -1 -0 0 1 0 0 1 2 3 3 3 3 3 2 -1 -2 -2 -3 -6 3 8 9 2 3 3 4 -11 7 10 -7 0 1 -0 9 5 3 5 7
-1 -1 -1 -2 -1 -0 -0 -0 -1 -0 -0 1 3 2 2 3 5 1 -2 -1 -3 1 -3 -2 6 3 2 -4 25 -2 4 -5 13 8 -19 4 6 18 11 0 3 2 3
0 1 -0 -0 -0 -1 1 1 1 1 2 1 1 1 2 -1 0 -1 -0 -2 0 5 0 -1 4 5 -5 4 -6 2 16 6 3 -4 -3 3 13 15 24 1 10 1 2
Height
5731 5730 5729 5730 5731 5732 5734 5734 5736 5738 5742 5744 5748 5751 5754 5757 5760 5764 5767 5770 5771 5775 5778 5780 5784 5789 5794 5799 5804 5808 5812 5817 5820 5825 5829 5832 5835 5838 5842 5844 5847 5849 5850
5715 5715 5716 5715 5713 5714 5715 5718 5720 5721 5724 5728 5732 5735 5739 5743 5747 5751 5755 5759 5761 5764 5768 5770 5776 5779 5784 5789 5794 5800 5804 5809 5813 5817 5822 5826 5830 5833 5836 5839 5842 5845 5847
5693 5692 5694 5696 5696 5697 5697 5697 5700 5704 5706 5709 5714 5718 5723 5728 5733 5737 5742 5746 5751 5754 5757 5761 5764 5769 5773 5778 5785 5790 5796 5801 5805 5808 5813 5818 5822 5826 5830 5833 5836 5839 5842
5671 5671 5670 5670 5672 5676 5677 5677 5678 5681 5685 5689 5693 5699 5705 5711 5716 5722 5726 5732 5737 5741 5746 5749 5754 5758 5763 5767 5774 5780 5786 5792 5797 5799 5803 5809 5814 5818 5822 5826 5830 5834 5837
5649 5648 5647 5646 5646 5647 5649 5654 5657 5659 5661 5665 5671 5677 5684 5691 5697 5703 5711 5716 5723 5728 5731 5738 5741 5746 5752 5756 5763 5769 5775 5781 5787 5791 5794 5800 5805 5809 5814 5817 5822 5826 5831
5620 5617 5615 5614 5615 5618 5620 5622 5626 5632 5637 5640 5645 5653 5661 5669 5677 5684 5692 5699 5706 5712 5717 5722 5728 5733 5740 5745 5751 5757 5764 5770 5777 5781 5785 5790 5796 5800 5805 5809 5813 5818 5823
5599 5593 5586 5584 5583 5584 5586 5589 5595 5601 5606 5611 5620 5624 5635 5645 5653 5663 5670 5679 5688 5695 5701 5707 5713 5720 5726 5733 5739 5745 5751 5760 5765 5770 5775 5780 5786 5791 5796 5801 5805 5809 5814
5572 5567 5562 5556 5550 5547 5545 5547 5553 5565 5574 5578 5588 5596 5607 5618 5626 5640 5647 5656 5665 5674 5682 5690 5697 5703 5712 5719 5726 5733 5738 5747 5755 5756 5762 5770 5775 5781 5787 5792 5796 5800 5804
5540 5533 5528 5524 5521 5517 5515 5512 5513 5520 5534 5544 5553 5564 5576 5585 5599 5611 5622 5632 5641 5651 5662 5670 5679 5687 5695 5703 5711 5719 5726 5733 5740 5747 5750 5756 5763 5770 5776 5781 5787 5791 5796
5505 5496 5489 5484 5480 5478 5477 5475 5475 5479 5488 5502 5514 5527 5542 5553 5567 5584 5594 5606 5616 5630 5640 5652 5660 5670 5679 5688 5696 5704 5713 5720 5728 5735 5741 5749 5752 5756 5762 5771 5777 5783 5787
5469 5459 5452 5447 5444 5443 5443 5444 5446 5449 5454 5461 5471 5488 5503 5520 5535 5550 5565 5578 5593 5608 5619 5631 5644 5654 5663 5672 5681 5689 5697 5706 5713 5722 5727 5735 5738 5739 5747 5758 5765 5772 5776
5438 5431 5429 5429 5428 5427 5428 5428 5430 5433 5436 5439 5443 5452 5466 5483 5500 5514 5536 5552 5567 5582 5596 5611 5625 5637 5647 5655 5664 5675 5682 5690 5698 5705 5714 5720 5726 5731 5740 5748 5754 5760 5766
5421 5418 5416 5415 5414 5414 5414 5414 5416 5418 5420 5423 5426 5430 5436 5449 5465 5480 5501 5525 5536 5556 5572 5590 5604 5618 5625 5637 5647 5656 5666 5674 5681 5689 5697 5705 5714 5721 5729 5734 5741 5749 5755
5409 5405 5403 5402 5401 5399 5398 5398 5399 5401 5402 5405 5409 5413 5417 5423 5433 5447 5468 5489 5509 5527 5547 5567 5578 5593 5607 5612 5623 5629 5645 5656 5666 5672 5679 5689 5700 5708 5718 5724 5732 5736 5743
5396 5393 5390 5388 5385 5382 5380 5379 5379 5380 5381 5385 5389 5394 5400 5405 5411 5419 5435 5456 5478 5498 5518 5542 5552 5569 5583 5596 5606 5617 5628 5638 5646 5655 5664 5675 5685 5694 5705 5713 5720 5725 5733
5383 5380 5375 5371 5367 5363 5361 5359 5359 5360 5361 5364 5368 5374 5379 5386 5392 5398 5407 5424 5446 5472 5492 5517 5534 5548 5560 5574 5588 5600 5610 5624 5634 5641 5649 5660 5670 5680 5691 5691 5698 5712 5718
5367 5362 5358 5353 5348 5345 5342 5341 5340 5340 5342 5344 5348 5354 5360 5365 5373 5379 5386 5399 5418 5442 5468 5489 5509 5523 5539 5554 5569 5582 5594 5606 5618 5628 5637 5646 5654 5665 5675 5680 5691 5700 5706
5353 5347 5341 5336 5330 5326 5323 5322 5321 5321 5322 5325 5328 5332 5340 5345 5353 5360 5369 5379 5393 5412 5441 5463 5483 5500 5521 5535 5551 5563 5578 5590 5603 5613 5623 5631 5640 5649 5659 5668 5679 5684 5693
5339 5333 5326 5320 5314 5309 5305 5303 5303 5303 5304 5306 5309 5313 5319 5324 5333 5341 5351 5362 5372 5387 5413 5436 5459 5478 5498 5517 5536 5547 5555 5571 5587 5599 5609 5616 5624 5634 5643 5655 5665 5668 5674
5329 5323 5314 5307 5302 5297 5292 5289 5289 5290 5290 5292 5293 5296 5299 5305 5314 5323 5334 5346 5355 5368 5387 5413 5436 5456 5474 5492 5515 5524 5535 5552 5571 5583 5592 5599 5609 5619 5627 5637 5650 5660 5665
5321 5314 5305 5299 5293 5287 5283 5280 5279 5278 5278 5277 5277 5278 5281 5287 5296 5306 5317 5330 5340 5351 5367 5389 5413 5432 5456 5471 5489 5506 5522 5536 5555 5565 5578 5588 5597 5604 5612 5622 5633 5644 5656
5314 5307 5300 5294 5288 5282 5278 5274 5271 5269 5267 5266 5265 5265 5267 5272 5281 5292 5304 5316 5326 5336 5348 5365 5388 5411 5434 5452 5469 5487 5504 5519 5537 5549 5560 5568 5579 5591 5600 5607 5619 5630 5642
5309 5303 5297 5290 5284 5279 5274 5270 5266 5263 5260 5259 5258 5258 5260 5266 5272 5282 5294 5304 5314 5323 5332 5345 5366 5391 5410 5430 5451 5468 5484 5505 5518 5531 5543 5556 5567 5577 5585 5594 5605 5615 5626
5304 5299 5294 5288 5282 5277 5272 5268 5264 5260 5257 5256 5256 5256 5259 5263 5270 5278 5287 5296 5305 5312 5321 5332 5351 5373 5391 5408 5428 5445 5464 5489 5500 5511 5526 5542 5552 5564 5572 5581 5591 5601 5611
5299 5294 5290 5285 5280 5276 5271 5266 5262 5258 5256 5254 5254 5255 5258 5262 5267 5273 5282 5288 5295 5303 5310 5320 5334 5354 5373 5391 5411 5426 5449 5467 5483 5497 5512 5529 5540 5546 5555 5567 5577 5587 5597
5293 5289 5285 5282 5277 5273 5269 5265 5261 5258 5255 5253 5252 5253 5255 5259 5263 5269 5275 5281 5287 5293 5299 5308 5320 5337 5357 5376 5393 5414 5429 5448 5465 5485 5500 5513 5521 5526 5539 5550 5562 5572 5582